[[{"header":{"parameterUnit":"m.s-1","parameterCategory":1,"la1":30.2991,"la2":30.254,"lo1":-89.0895,"lo2":-89.0444,"dy":0.0017,"dx":0.0017,"nx":28,"ny":28,"refTime":"2025-08-02T21:00:00:Z","depth":0,"parameterNumber":2,"parameterNumberName":"U-component_of_WINDS"},"data":[0,0,0,0,0,0,0,0,0,0,0,0,0,0,0,0,0,0,0,0,0,0,0,0,0,0,0,0,0,0,0,0,0,0,0,0,0,0,0,0,0,0,0,0,0,0,0,0,0,0,0,0,0,0,0,0,0,0,-0.5399,-0.5399,0,-0.5393,-0.5393,-0.5393,-0.539,-0.539,-0.539,-0.539,-0.5382,-0.5382,-0.5382,0,0,0,0,0,0,0,0,0,0,0,0,0,-0.5406,-0.5406,-0.5399,-0.5399,-0.5399,-0.5393,-0.5393,-0.5393,-0.539,-0.539,-0.539,-0.539,-0.5382,-0.5382,-0.5382,0,0,0,0,0,0,0,0,0,0,0,0,0,-0.5402,-0.5406,-0.5399,-0.5397,-0.5396,-0.5393,-0.5393,-0.5393,-0.539,-0.539,-0.539,-0.539,-0.5383,-0.5382,-0.5382,-0.5381,0,0,-0.5381,-0.5381,0,0,0,0,0,0,0,0,-0.5402,-0.5402,-0.5397,-0.5397,-0.5396,-0.5392,-0.5393,-0.5389,-0.539,-0.5392,-0.539,-0.539,-0.5386,-0.5385,-0.5384,-0.5381,-0.538,-0.5381,-0.5381,-0.5381,-0.5381,0,0,0,0,0,0,0,-0.5403,-0.5402,-0.5397,-0.5397,-0.5397,-0.5395,-0.5395,-0.5392,-0.5389,-0.5392,-0.5392,-0.5391,-0.5385,-0.5384,-0.5384,-0.538,-0.5381,-0.5381,-0.5381,-0.5381,-0.5376,-0.5376,0,0,0,0,0,0,-0.5404,-0.5402,-0.5397,-0.5397,-0.54,-0.5395,-0.5395,-0.5394,-0.5389,-0.5388,-0.5391,-0.5391,-0.5385,-0.5384,-0.5384,-0.5382,-0.5381,-0.5381,-0.5381,-0.5376,-0.5376,-0.5376,0,0,0,0,0,0,-0.5404,-0.5403,-0.5397,-0.54,-0.5399,-0.5395,-0.5394,-0.5394,-0.5392,-0.5388,-0.5388,-0.5391,-0.5385,-0.5384,-0.5382,-0.5382,-0.5381,-0.538,-0.5376,-0.5376,-0.5376,-0.5379,0,0,0,0,0,0,-0.5404,-0.5403,-0.5403,-0.54,-0.5399,-0.5396,-0.5394,-0.5393,-0.5392,-0.5392,-0.5388,-0.5387,-0.5385,-0.5382,-0.5381,-0.5381,-0.538,-0.5375,-0.5376,-0.5376,-0.5379,-0.5379,-0.5379,0,0,0,0,0,-0.5404,-0.5404,-0.5403,-0.5402,-0.5398,-0.5396,-0.5395,-0.5393,-0.5392,-0.5392,-0.5389,-0.5387,-0.5382,-0.5382,-0.5381,-0.5381,-0.5375,-0.5376,-0.5376,-0.5379,-0.5379,-0.5379,0,0,0,0,0,0,-0.5407,-0.5403,-0.5402,-0.5401,-0.5399,-0.5395,-0.5395,-0.5393,-0.5391,-0.5391,-0.5387,-0.5386,-0.5385,-0.5382,-0.5383,-0.538,-0.5378,-0.5378,-0.5381,-0.5381,-0.5382,-0.5382,-0.538,0,0,0,0,0,-0.5407,-0.5406,-0.5403,-0.5402,-0.5401,-0.5398,-0.5397,-0.5395,-0.5393,-0.5392,-0.5389,-0.5386,-0.5384,-0.5383,-0.538,-0.5379,-0.5378,-0.5378,-0.5378,-0.5378,-0.5378,-0.5377,-0.5377,-0.5376,-0.5376,-0.5376,0,0,-0.5408,-0.5406,-0.5405,-0.5402,-0.54,-0.5399,-0.5397,-0.5396,-0.5394,-0.5391,-0.5389,-0.5387,-0.5384,-0.5382,-0.5381,-0.538,-0.5379,-0.5379,-0.5379,-0.5378,-0.5377,-0.5378,-0.5378,-0.5376,-0.5376,-0.5376,0,0,-0.5409,-0.5407,-0.5406,-0.5404,-0.5402,-0.54,-0.54,-0.5397,-0.5395,-0.5393,-0.5391,-0.5389,-0.5385,-0.5383,-0.5382,-0.5382,-0.538,-0.5381,-0.5383,-0.5382,-0.5382,-0.5382,-0.5382,-0.5382,-0.5381,-0.5381,-0.5381,0,-0.541,-0.5408,-0.5406,-0.5404,-0.5403,-0.5401,-0.54,-0.5398,-0.5395,-0.5394,-0.5393,-0.5388,-0.5386,-0.5384,-0.5384,-0.5383,-0.5382,-0.5382,-0.5382,-0.5382,-0.5382,-0.5382,-0.5382,-0.5382,-0.5382,-0.5382,-0.5381,0,-0.5409,-0.5408,-0.5407,-0.5405,-0.5403,-0.5402,-0.54,-0.5399,-0.5397,-0.5395,-0.5393,-0.539,-0.5388,-0.5387,-0.5385,-0.5384,-0.5384,-0.5383,-0.5381,-0.5383,-0.5382,-0.5382,-0.5382,-0.5382,-0.5382,-0.5382,0,0,-0.5411,-0.5408,-0.5408,-0.5406,-0.5404,-0.5402,-0.5401,-0.5399,-0.5398,-0.5396,-0.5394,-0.5391,-0.539,-0.5388,-0.5387,-0.5386,-0.5386,-0.5385,-0.5384,-0.5385,-0.5385,-0.5386,-0.5386,-0.5385,-0.5385,-0.5385,-0.5385,0,-0.5411,-0.5409,-0.5407,-0.5406,-0.5404,-0.5402,-0.5401,-0.5399,-0.5397,-0.5396,-0.5394,-0.5392,-0.5391,-0.539,-0.5389,-0.5386,-0.5386,-0.5386,-0.5383,-0.5383,-0.5384,-0.5386,-0.5387,-0.5387,-0.5385,-0.5385,-0.5385,0,-0.5411,-0.541,-0.5408,-0.5406,-0.5405,-0.5404,-0.5402,-0.54,-0.5398,-0.5397,-0.5395,-0.5393,-0.5392,-0.5391,-0.5388,-0.5388,-0.5387,-0.5386,-0.5386,-0.5385,-0.5384,-0.5385,-0.5387,-0.5387,-0.5385,-0.5385,-0.5385,0,-0.5413,-0.541,-0.5409,-0.5408,-0.5405,-0.5404,-0.5403,-0.5401,-0.54,-0.5398,-0.5397,-0.5394,-0.5393,-0.5391,-0.5389,-0.5388,-0.5387,-0.5385,-0.5385,-0.5385,-0.5385,-0.5385,-0.5386,-0.5384,-0.5384,-0.5384,-0.5384,0,-0.5413,-0.5412,-0.5409,-0.5409,-0.5408,-0.5405,-0.5404,-0.5403,-0.5401,-0.5399,-0.5397,-0.5396,-0.5393,-0.5391,-0.539,-0.5388,-0.5387,-0.5386,-0.5385,-0.5386,-0.5386,-0.5385,-0.5385,-0.5384,-0.5384,-0.5384,-0.5384,0,-0.5414,-0.5413,-0.5411,-0.5409,-0.5408,-0.5407,-0.5405,-0.5404,-0.5402,-0.5401,-0.54,-0.5398,-0.5395,-0.5393,-0.539,-0.5389,-0.5387,-0.5386,-0.5388,-0.5388,-0.5388,-0.5388,-0.5388,-0.5388,-0.5386,-0.5386,-0.5386,0,-0.5415,-0.5414,-0.5411,-0.5411,-0.541,-0.5408,-0.5407,-0.5405,-0.5404,-0.5401,-0.5401,-0.5399,-0.5397,-0.5394,-0.5391,-0.5389,-0.5388,-0.5388,-0.5388,-0.5388,-0.5388,-0.5388,-0.5388,-0.5388,-0.5388,-0.5389,-0.5389,0,-0.5415,-0.5414,-0.5413,-0.5412,-0.541,-0.5409,-0.5407,-0.5407,-0.5404,-0.5403,-0.5401,-0.54,-0.5397,-0.5395,-0.5393,-0.5391,-0.5389,-0.5389,-0.5389,-0.5389,-0.539,-0.539,-0.5388,-0.5389,-0.5389,-0.5389,-0.5389,-0.5389,-0.5416,-0.5415,-0.5414,-0.5412,-0.5411,-0.5409,-0.5409,-0.5407,-0.5406,-0.5403,-0.5402,-0.54,-0.5398,-0.5395,-0.5393,-0.5391,-0.5391,-0.5391,-0.5391,-0.539,-0.5391,-0.5391,-0.5391,-0.5391,-0.5391,-0.5391,-0.5391,0,-0.5416,-0.5415,-0.5414,-0.5412,-0.5411,-0.541,-0.5408,-0.5407,-0.5406,-0.5404,-0.5403,-0.5401,-0.5399,-0.5396,-0.5394,-0.5393,-0.5392,-0.5393,-0.5393,-0.5392,-0.5391,-0.5392,-0.5393,-0.5393,-0.5393,-0.5393,-0.5393,-0.5393,-0.5416,-0.5415,-0.5414,-0.5413,-0.5411,-0.541,-0.5409,-0.5408,-0.5406,-0.5404,-0.5403,-0.5401,-0.5399,-0.5397,-0.5395,-0.5394,-0.5394,-0.5394,-0.5393,-0.5392,-0.5392,-0.5392,-0.5392,-0.5394,-0.5394,-0.5394,-0.5394,-0.5394]},{"header":{"parameterUnit":"m.s-1","parameterCategory":1,"la1":30.2991,"la2":30.254,"lo1":-89.0895,"lo2":-89.0444,"dy":0.0017,"dx":0.0017,"nx":28,"ny":28,"refTime":"2025-08-02T21:00:00:Z","depth":0,"parameterNumber":3,"parameterNumberName":"V-component_of_WINDS"},"data":[0,0,0,0,0,0,0,0,0,0,0,0,0,0,0,0,0,0,0,0,0,0,0,0,0,0,0,0,0,0,0,0,0,0,0,0,0,0,0,0,0,0,0,0,0,0,0,0,0,0,0,0,0,0,0,0,0,0,0.9093,0.9094,0,0.9216,0.9217,0.9219,0.9289,0.929,0.929,0.929,0.9417,0.942,0.9423,0,0,0,0,0,0,0,0,0,0,0,0,0,0.8917,0.892,0.9093,0.9094,0.9096,0.9216,0.9217,0.9219,0.9289,0.929,0.929,0.929,0.9416,0.942,0.9423,0,0,0,0,0,0,0,0,0,0,0,0,0,0.9012,0.8921,0.9092,0.9145,0.9151,0.9215,0.9218,0.922,0.9289,0.929,0.929,0.929,0.9415,0.9419,0.9424,0.9445,0,0,0.9438,0.944,0,0,0,0,0,0,0,0,0.9006,0.9018,0.9136,0.9142,0.9148,0.9238,0.9202,0.9295,0.9289,0.9237,0.929,0.9291,0.9357,0.9366,0.9389,0.9451,0.9457,0.9439,0.9442,0.9444,0.9445,0,0,0,0,0,0,0,0.9,0.9013,0.9142,0.9138,0.9145,0.9162,0.9176,0.922,0.9293,0.9241,0.9247,0.926,0.9361,0.9384,0.9392,0.9459,0.9439,0.9443,0.9446,0.9447,0.9542,0.9542,0,0,0,0,0,0,0.8985,0.9007,0.9138,0.9145,0.9077,0.9165,0.9181,0.9209,0.9293,0.9306,0.926,0.9263,0.9376,0.9387,0.9397,0.9426,0.9444,0.9448,0.9451,0.9543,0.9542,0.9542,0,0,0,0,0,0,0.8981,0.8996,0.9133,0.9078,0.9097,0.9168,0.9199,0.9211,0.9235,0.9307,0.932,0.9271,0.9377,0.939,0.9432,0.9432,0.945,0.9454,0.9543,0.9542,0.9542,0.9485,0,0,0,0,0,0,0.8975,0.8994,0.9003,0.9077,0.9099,0.9166,0.9199,0.9213,0.9242,0.9248,0.9321,0.9333,0.9378,0.9425,0.9437,0.9438,0.9458,0.9543,0.9543,0.9542,0.9487,0.9483,0.9479,0,0,0,0,0,0.8969,0.8983,0.9003,0.9019,0.9112,0.9166,0.9178,0.923,0.9242,0.9252,0.9298,0.9331,0.943,0.9428,0.9443,0.9446,0.9544,0.9543,0.9542,0.9489,0.9484,0.9479,0,0,0,0,0,0,0.8908,0.8994,0.9017,0.9056,0.9103,0.9178,0.9192,0.9222,0.9267,0.927,0.9332,0.9348,0.9383,0.9419,0.9416,0.947,0.949,0.9492,0.9445,0.944,0.9436,0.9427,0.9462,0,0,0,0,0,0.8899,0.8935,0.9008,0.9035,0.9058,0.912,0.9145,0.918,0.9232,0.9252,0.9302,0.935,0.9392,0.9418,0.9461,0.9493,0.9509,0.9502,0.9497,0.9493,0.9494,0.9512,0.9509,0.954,0.954,0.954,0,0,0.8881,0.8932,0.8952,0.9024,0.9065,0.91,0.9137,0.9173,0.92,0.9258,0.93,0.9337,0.9395,0.9432,0.945,0.9462,0.9489,0.9493,0.9489,0.9492,0.9511,0.9508,0.9505,0.9539,0.9539,0.9539,0,0,0.8866,0.8909,0.8935,0.8974,0.9035,0.9076,0.9082,0.9151,0.9178,0.9221,0.9264,0.9297,0.9368,0.9407,0.9436,0.9432,0.9464,0.9445,0.9422,0.9438,0.9436,0.9434,0.9431,0.943,0.9445,0.9445,0.9445,0,0.8836,0.8892,0.8945,0.8978,0.9008,0.9061,0.9087,0.9123,0.9194,0.9213,0.9225,0.9314,0.9357,0.9402,0.9401,0.9423,0.9431,0.9437,0.9432,0.9431,0.943,0.9428,0.9427,0.9442,0.9443,0.9443,0.9443,0,0.8851,0.8888,0.8902,0.8968,0.9,0.9029,0.9086,0.9112,0.9143,0.9182,0.9224,0.9277,0.933,0.9344,0.9376,0.9392,0.9398,0.942,0.9442,0.9423,0.9422,0.9422,0.9438,0.9439,0.944,0.9441,0,0,0.8804,0.8896,0.89,0.893,0.8999,0.9028,0.9059,0.911,0.913,0.9177,0.9204,0.9261,0.9282,0.9314,0.9351,0.9365,0.9356,0.9386,0.9388,0.9377,0.9376,0.9358,0.9356,0.9377,0.9378,0.9378,0.9371,0,0.8798,0.8856,0.8904,0.8944,0.8978,0.9027,0.9053,0.9098,0.9135,0.9169,0.921,0.9249,0.9274,0.9293,0.931,0.9354,0.9357,0.9355,0.9402,0.9403,0.9385,0.9356,0.9338,0.9329,0.9371,0.9371,0.9371,0,0.88,0.8843,0.8886,0.8948,0.8965,0.8988,0.9037,0.9069,0.912,0.9145,0.918,0.9218,0.9251,0.9269,0.9316,0.9314,0.9336,0.936,0.9361,0.9367,0.9385,0.936,0.9328,0.9326,0.9371,0.9371,0.9371,0,0.8759,0.8828,0.8862,0.8886,0.896,0.8975,0.9006,0.9057,0.9084,0.9127,0.9145,0.9191,0.9216,0.9251,0.9299,0.9308,0.934,0.9363,0.9362,0.936,0.9367,0.9365,0.9336,0.9382,0.9382,0.9382,0.9382,0,0.8748,0.8772,0.8844,0.8865,0.8892,0.8946,0.8972,0.9008,0.9052,0.908,0.9125,0.9151,0.9213,0.9246,0.9284,0.9316,0.9327,0.9348,0.9358,0.9344,0.9341,0.9359,0.936,0.9382,0.9382,0.9382,0.9382,0,0.8708,0.8757,0.8797,0.8863,0.888,0.8897,0.8953,0.8975,0.9013,0.9047,0.9059,0.9119,0.9159,0.9211,0.9268,0.9293,0.932,0.9336,0.9303,0.9308,0.9303,0.9303,0.9284,0.9283,0.933,0.9329,0.9329,0,0.8697,0.8717,0.8783,0.8805,0.8834,0.8869,0.8895,0.8948,0.8974,0.9031,0.9045,0.9089,0.9126,0.9188,0.9237,0.928,0.9296,0.9287,0.9303,0.9288,0.9295,0.9292,0.9294,0.9282,0.9282,0.9281,0.9281,0,0.8673,0.8695,0.8732,0.8775,0.8805,0.8843,0.8883,0.8898,0.8958,0.8985,0.9026,0.9054,0.9111,0.9153,0.9202,0.9235,0.9267,0.9275,0.9276,0.9262,0.9241,0.9251,0.929,0.9275,0.9276,0.9276,0.9276,0.9277,0.8647,0.8665,0.8713,0.8752,0.8786,0.8821,0.8844,0.8884,0.8918,0.8968,0.8997,0.9036,0.9084,0.9153,0.9184,0.9215,0.9227,0.923,0.9231,0.923,0.9225,0.9236,0.9224,0.9224,0.9225,0.9225,0.9225,0,0.8623,0.8656,0.869,0.8743,0.8772,0.8799,0.8843,0.8866,0.89,0.8941,0.8976,0.9022,0.9062,0.9113,0.9156,0.9171,0.9187,0.9181,0.918,0.9186,0.9212,0.9206,0.9167,0.9167,0.9167,0.9167,0.9167,0.9167,0.8614,0.8646,0.8673,0.8721,0.8754,0.8792,0.8815,0.8847,0.888,0.8928,0.8961,0.8993,0.9038,0.9084,0.9122,0.9136,0.9149,0.9138,0.9156,0.918,0.9185,0.919,0.9184,0.9141,0.9141,0.9127,0.9127,0.9127]}]]